Location: Central Coast NSW, Australia
(33.2407°S, 151.4316°E)
Time: 09:15:57
(UTC+11:00)

Tiangong 2 - Visible Passes

Search period start: 14 November 2018 00:00
Search period end: 24 November 2018 00:00
Orbit: 382 x 393 km, 42.8° (Epoch: 13 November)

Date Brightness Start Highest point End Pass type
(mag) Time Alt. Az. Time Alt. Az. Time Alt. Az.
14 Nov 3.8 03:51:49 10° SW 03:54:09 18° SSE 03:56:31 10° ESE visible
15 Nov 4.3 02:56:10 15° SSE 02:56:10 15° SSE 02:57:25 10° SE visible
15 Nov 2.6 04:29:43 10° SW 04:32:45 37° SSE 04:35:47 10° E visible
16 Nov 3.3 03:33:05 21° SSW 03:34:03 25° SSE 03:36:47 10° ESE visible
16 Nov 1.2 05:07:52 10° WSW 05:11:02 58° NNW 05:14:12 10° NE visible
17 Nov 1.3 04:10:26 20° SW 04:12:29 70° SSE 04:15:42 10° ENE visible
18 Nov 3.8 03:15:58 17° E 03:15:58 17° E 03:16:54 10° E visible
18 Nov 2.1 04:48:23 13° W 04:50:35 26° NW 04:53:20 10° NNE visible
18 Nov 2.1 21:19:52 10° NW 21:21:53 35° NW 21:21:53 35° NW visible
19 Nov 3.5 03:54:34 15° NE 03:54:34 15° NE 03:55:14 10° NE visible
19 Nov 1.8 20:21:38 10° NNW 20:24:32 33° NE 20:27:27 10° ESE visible
19 Nov 3.2 21:58:23 10° W 22:00:25 27° WSW 22:00:25 27° WSW visible
20 Nov 1.7 20:59:30 10° WNW 21:02:39 57° SSW 21:05:50 10° SE visible
20 Nov 4.5 22:37:39 10° SW 22:38:14 13° SW 22:38:14 13° SW visible
21 Nov 3.6 21:38:28 10° WSW 21:41:05 22° SSW 21:43:09 13° SSE visible
22 Nov 3.0 20:39:23 10° W 20:42:19 32° SSW 20:45:15 10° SE visible
22 Nov 4.0 22:17:46 10° SW 22:19:45 15° S 22:19:59 15° S visible
23 Nov 3.9 21:18:37 10° SW 21:20:52 17° S 21:23:07 10° SE visible
23 Nov 4.7 22:56:21 10° SSW 22:56:32 11° SSW 22:56:32 11° SSW visible
